| time (UTC) | temp F | wind direction | speed knots | gust knots | rain 1hr in | rain 24hr in | rain mn in | humidity % | barometer mb |
| 20260506184805 | 56 | 242 | 0.0 | 5.2 | 0.00 | 0.77 | 0.77 | 74 | 1011.5 |
| 20260506184304 | 57 | 55 | 0.0 | 1.7 | 0.00 | 0.77 | 0.77 | 72 | 1011.4 |
| 20260506183805 | 57 | 280 | 0.9 | 8.7 | 0.00 | 0.77 | 0.77 | 71 | 1011.2 |
| 20260506183304 | 58 | 268 | 1.7 | 5.2 | 0.00 | 0.77 | 0.77 | 70 | 1011.0 |
| 20260506181804 | 59 | 294 | 1.7 | 4.3 | 0.00 | 0.77 | 0.77 | 67 | 1011.2 |
| 20260506180806 | 60 | 273 | 1.7 | 4.3 | 0.00 | 0.77 | 0.77 | 65 | 1010.8 |
| 20260506180305 | 60 | 304 | 1.7 | 7.0 | 0.00 | 0.77 | 0.77 | 65 | 1010.8 |
| 20260506174805 | 61 | 306 | 1.7 | 7.8 | 0.00 | 0.77 | 0.77 | 62 | 1010.5 |
| 20260506174305 | 62 | 280 | 2.6 | 8.7 | 0.00 | 0.77 | 0.77 | 60 | 1010.5 |
| 20260506173805 | 63 | 276 | 1.7 | 2.6 | 0.00 | 0.77 | 0.77 | 58 | 1010.3 |
| 20260506173305 | 63 | 300 | 1.7 | 6.1 | 0.00 | 0.77 | 0.77 | 58 | 1010.2 |
| 20260506171305 | 64 | 304 | 2.6 | 6.1 | 0.00 | 0.77 | 0.77 | 55 | 1010.1 |
| 20260506170306 | 65 | 312 | 0.9 | 12.2 | 0.00 | 0.77 | 0.77 | 53 | 1009.8 |
| 20260506164304 | 65 | 316 | 1.7 | 6.1 | 0.00 | 0.77 | 0.77 | 49 | 1010.0 |
| 20260506163806 | 66 | 297 | 1.7 | 5.2 | 0.00 | 0.77 | 0.77 | 49 | 1010.1 |
| 20260506163305 | 66 | 303 | 0.9 | 8.7 | 0.00 | 0.77 | 0.77 | 47 | 1010.1 |
| 20260506161806 | 65 | 305 | 2.6 | 7.0 | 0.00 | 0.77 | 0.77 | 45 | 1009.8 |
| 20260506161304 | 66 | 295 | 1.7 | 5.2 | 0.00 | 0.77 | 0.77 | 44 | 1009.9 |
| 20260506160806 | 66 | 308 | 1.7 | 8.7 | 0.00 | 0.77 | 0.77 | 44 | 1010.2 |
| 20260506160304 | 66 | 315 | 1.7 | 11.3 | 0.00 | 0.77 | 0.77 | 44 | 1010.0 |
| 20260506154805 | 68 | 303 | 0.9 | 5.2 | 0.00 | 0.77 | 0.77 | 43 | 1009.7 |
| 20260506154304 | 67 | 289 | 2.6 | 8.7 | 0.00 | 0.77 | 0.77 | 42 | 1009.8 |
| 20260506151805 | 67 | 278 | 3.5 | 8.7 | 0.00 | 0.77 | 0.77 | 45 | 1009.6 |
| 20260506150804 | 68 | 301 | 2.6 | 7.8 | 0.00 | 0.77 | 0.77 | 44 | 1009.6 |
| 20260506144805 | 68 | 290 | 1.7 | 8.7 | 0.00 | 0.77 | 0.77 | 42 | 1009.7 |
| 20260506144305 | 68 | 292 | 4.3 | 8.7 | 0.00 | 0.77 | 0.77 | 41 | 1009.5 |
| 20260506143806 | 67 | 298 | 2.6 | 12.2 | 0.00 | 0.77 | 0.77 | 42 | 1009.8 |
| 20260506143305 | 68 | 302 | 2.6 | 11.3 | 0.00 | 0.77 | 0.77 | 43 | 1009.8 |
| 20260506141805 | 68 | 311 | 1.7 | 7.8 | 0.00 | 0.77 | 0.77 | 46 | 1009.6 |
| 20260506141304 | 68 | 288 | 1.7 | 12.2 | 0.00 | 0.77 | 0.77 | 46 | 1009.5 |
| 20260506140804 | 67 | 282 | 1.7 | 7.0 | 0.00 | 0.77 | 0.77 | 48 | 1009.6 |
| 20260506140305 | 67 | 254 | 2.6 | 11.3 | 0.00 | 0.77 | 0.77 | 47 | 1009.6 |
| 20260506134804 | 67 | 54 | 1.7 | 6.1 | 0.00 | 0.77 | 0.77 | 46 | 1009.9 |
| 20260506134304 | 67 | 299 | 2.6 | 8.7 | 0.00 | 0.77 | 0.77 | 48 | 1009.9 |
| 20260506133805 | 69 | 322 | 1.7 | 5.2 | 0.00 | 0.77 | 0.77 | 46 | 1009.6 |
| 20260506133304 | 69 | 345 | 1.7 | 7.8 | 0.00 | 0.77 | 0.77 | 49 | 1009.8 |
| 20260506131805 | 67 | 288 | 0.9 | 8.7 | 0.00 | 0.77 | 0.77 | 49 | 1010.1 |
| 20260506131306 | 66 | 333 | 1.7 | 10.4 | 0.00 | 0.77 | 0.77 | 49 | 1010.0 |
| 20260506130804 | 67 | 344 | 1.7 | 7.0 | 0.00 | 0.77 | 0.77 | 46 | 1009.8 |
| 20260506130304 | 64 | 316 | 2.6 | 6.1 | 0.00 | 0.77 | 0.77 | 51 | 1010.3 |
| 20260506124805 | 64 | 25 | 0.9 | 4.3 | 0.00 | 0.77 | 0.77 | 51 | 1010.1 |
| 20260506124304 | 64 | 270 | 0.9 | 5.2 | 0.00 | 0.77 | 0.77 | 52 | 1010.4 |
| 20260506123306 | 64 | 14 | 2.6 | 10.4 | 0.00 | 0.77 | 0.77 | 53 | 1010.3 |
| 20260506121804 | 65 | 289 | 2.6 | 7.8 | 0.00 | 0.77 | 0.77 | 54 | 1010.3 |
| 20260506121306 | 65 | 333 | 0.9 | 7.0 | 0.00 | 0.77 | 0.77 | 54 | 1010.4 |
| 20260506120805 | 66 | 24 | 2.6 | 7.0 | 0.00 | 0.77 | 0.77 | 52 | 1010.3 |
| 20260506120305 | 65 | 287 | 1.7 | 8.7 | 0.00 | 0.77 | 0.77 | 55 | 1010.3 |
| 20260506114304 | 66 | 20 | 0.9 | 4.3 | 0.00 | 0.77 | 0.77 | 54 | 1010.5 |
| 20260506113806 | 66 | 7 | 1.7 | 7.0 | 0.00 | 0.77 | 0.77 | 55 | 1010.3 |
| 20260506113305 | 66 | 281 | 2.6 | 11.3 | 0.00 | 0.77 | 0.77 | 54 | 1010.3 |
| 20260506111805 | 65 | 316 | 0.9 | 7.0 | 0.00 | 0.77 | 0.77 | 56 | 1010.5 |
| 20260506111305 | 65 | 295 | 1.7 | 5.2 | 0.00 | 0.77 | 0.77 | 56 | 1010.6 |
| 20260506110804 | 65 | 320 | 1.7 | 6.1 | 0.00 | 0.77 | 0.77 | 58 | 1010.7 |
| 20260506110304 | 65 | 316 | 0.9 | 8.7 | 0.00 | 0.77 | 0.77 | 60 | 1010.8 |
| 20260506104304 | 65 | 296 | 0.9 | 4.3 | 0.00 | 0.77 | 0.77 | 58 | 1010.8 |
| 20260506103805 | 65 | 329 | 1.7 | 4.3 | 0.00 | 0.77 | 0.77 | 60 | 1010.8 |
| 20260506103305 | 65 | 25 | 0.9 | 7.8 | 0.00 | 0.77 | 0.77 | 58 | 1010.9 |
| 20260506101804 | 62 | 295 | 2.6 | 6.1 | 0.00 | 0.77 | 0.77 | 64 | 1011.2 |
| 20260506100804 | 63 | 356 | 1.7 | 6.1 | 0.00 | 0.77 | 0.77 | 65 | 1010.9 |
| 20260506094805 | 62 | 304 | 1.7 | 6.1 | 0.00 | 0.77 | 0.77 | 68 | 1011.2 |
| 20260506093805 | 62 | 339 | 1.7 | 5.2 | 0.00 | 0.77 | 0.77 | 69 | 1011.0 |
| 20260506093304 | 62 | 337 | 2.6 | 6.1 | 0.00 | 0.78 | 0.77 | 70 | 1010.9 |
| 20260506091804 | 60 | 304 | 1.7 | 5.2 | 0.00 | 0.78 | 0.77 | 73 | 1011.3 |
| 20260506091304 | 60 | 304 | 1.7 | 6.1 | 0.00 | 0.78 | 0.77 | 75 | 1011.0 |
| 20260506090305 | 60 | 353 | 0.9 | 5.2 | 0.00 | 0.78 | 0.77 | 75 | 1010.8 |
| 20260506084805 | 59 | 314 | 1.7 | 6.1 | 0.00 | 0.78 | 0.77 | 75 | 1010.8 |
| 20260506084304 | 59 | 354 | 1.7 | 7.0 | 0.00 | 0.78 | 0.77 | 75 | 1010.9 |
| 20260506083806 | 59 | 318 | 1.7 | 6.1 | 0.00 | 0.78 | 0.77 | 76 | 1010.8 |
| 20260506083306 | 58 | 318 | 0.9 | 4.3 | 0.00 | 0.78 | 0.77 | 79 | 1010.6 |
| 20260506081806 | 57 | 300 | 1.7 | 5.2 | 0.00 | 0.78 | 0.77 | 82 | 1010.8 |
| 20260506081304 | 57 | 65 | 0.9 | 2.6 | 0.00 | 0.78 | 0.77 | 86 | 1011.0 |
| 20260506080804 | 56 | 6 | 0.0 | 2.6 | 0.00 | 0.78 | 0.77 | 84 | 1010.9 |
| 20260506080305 | 57 | 8 | 0.9 | 4.3 | 0.00 | 0.78 | 0.77 | 85 | 1010.8 |
| 20260506073304 | 57 | 7 | 1.7 | 4.3 | 0.00 | 0.78 | 0.77 | 85 | 1010.4 |
| 20260506071806 | 56 | 106 | 1.7 | 4.3 | 0.00 | 0.78 | 0.77 | 86 | 1010.6 |
| 20260506071304 | 55 | 27 | 2.6 | 5.2 | 0.00 | 0.78 | 0.77 | 89 | 1010.7 |
| 20260506070804 | 55 | 342 | 0.9 | 1.7 | 0.00 | 0.78 | 0.77 | 90 | 1010.6 |
| 20260506070304 | 55 | 351 | 0.9 | 2.6 | 0.00 | 0.78 | 0.77 | 91 | 1010.6 |
| 20260506061804 | 59 | 65 | 0.9 | 1.7 | 0.00 | 0.78 | 0.77 | 85 | 1009.9 |
| 20260506061305 | 58 | 160 | 0.0 | 1.7 | 0.00 | 0.78 | 0.77 | 86 | 1009.7 |
| 20260506060803 | 57 | 92 | 1.7 | 2.6 | 0.00 | 0.78 | 0.77 | 87 | 1009.8 |
| 20260506060304 | 58 | 122 | 0.9 | 1.7 | 0.00 | 0.78 | 0.77 | 87 | 1009.8 |
| 20260506051304 | 52 | 36 | 0.0 | 1.7 | 0.00 | 0.79 | 0.77 | 97 | 1009.9 |
| 20260506050805 | 52 | 326 | 0.9 | 1.7 | 0.00 | 0.79 | 0.77 | 98 | 1009.7 |
| 20260506050305 | 51 | 263 | 0.0 | 1.7 | 0.00 | 0.79 | 0.77 | 98 | 1009.8 |
| 20260506044804 | 51 | 255 | 0.0 | 0.9 | 0.00 | 0.79 | 0.77 | 98 | 1009.8 |
| 20260506044304 | 51 | 123 | 0.0 | 0.9 | 0.00 | 0.79 | 0.77 | 98 | 1010.0 |
| 20260506041804 | 51 | 286 | 0.0 | 0.9 | 0.00 | 0.79 | 0.77 | 98 | 1009.9 |
| 20260506040804 | 51 | 309 | 0.0 | 0.9 | 0.00 | 0.79 | 0.77 | 98 | 1009.8 |
| 20260506040303 | 51 | 189 | 0.9 | 1.7 | 0.00 | 0.79 | 0.77 | 98 | 1010.1 |
| 20260506034804 | 51 | 235 | 0.0 | 0.0 | 0.00 | 0.79 | 0.77 | 98 | 1010.1 |
| 20260506034304 | 51 | 105 | 0.0 | 0.9 | 0.00 | 0.79 | 0.77 | 98 | 1009.8 |
| 20260506033804 | 51 | 235 | 0.0 | 0.9 | 0.00 | 0.79 | 0.77 | 98 | 1009.9 |
| 20260506033304 | 51 | 269 | 0.0 | 0.0 | 0.00 | 0.79 | 0.77 | 98 | 1010.0 |
| 20260506031805 | 51 | 55 | 0.0 | 0.9 | 0.00 | 0.80 | 0.77 | 98 | 1009.8 |
| 20260506030804 | 51 | 147 | 0.0 | 0.0 | 0.00 | 0.80 | 0.77 | 97 | 1009.7 |
| 20260506030305 | 51 | 149 | 0.0 | 0.9 | 0.00 | 0.80 | 0.77 | 97 | 1009.8 |
| 20260506024804 | 51 | 76 | 0.0 | 0.0 | 0.00 | 0.85 | 0.77 | 97 | 1009.7 |
| 20260506024306 | 51 | 103 | 0.0 | 0.9 | 0.00 | 0.89 | 0.77 | 97 | 1009.5 |
| 20260506023806 | 51 | 40 | 0.0 | 0.0 | 0.00 | 0.91 | 0.77 | 97 | 1009.7 |
| 20260506023306 | 51 | 32 | 0.0 | 4.3 | 0.00 | 0.91 | 0.77 | 97 | 1009.5 |
| 20260506021806 | 51 | 96 | 2.6 | 4.3 | 0.01 | 1.00 | 0.77 | 97 | 1009.4 |
| 20260506021305 | 51 | 93 | 1.7 | 4.3 | 0.03 | 1.00 | 0.77 | 97 | 1009.6 |
| 20260506020807 | 51 | 67 | 1.7 | 1.7 | 0.07 | 1.00 | 0.77 | 97 | 1009.6 |
| 20260506020306 | 52 | 57 | 1.7 | 4.3 | 0.16 | 1.00 | 0.77 | 97 | 1009.5 |
| 20260506014805 | 53 | 90 | 0.9 | 2.6 | 0.48 | 1.00 | 0.77 | 97 | 1009.5 |
| 20260506014305 | 53 | 141 | 0.9 | 1.7 | 0.52 | 1.00 | 0.77 | 97 | 1009.4 |
| 20260506013805 | 53 | 117 | 0.0 | 1.7 | 0.58 | 1.00 | 0.77 | 97 | 1009.4 |
| 20260506013305 | 53 | 254 | 0.9 | 5.2 | 0.64 | 1.00 | 0.77 | 97 | 1009.4 |
| 20260506011805 | 53 | 51 | 2.6 | 6.1 | 0.65 | 0.99 | 0.76 | 97 | 1009.4 |
| 20260506011306 | 53 | 88 | 1.7 | 2.6 | 0.64 | 0.97 | 0.74 | 97 | 1010.2 |
| 20260506010805 | 53 | 207 | 0.9 | 1.7 | 0.61 | 0.93 | 0.70 | 97 | 1010.5 |
| 20260506004305 | 54 | 163 | 1.7 | 2.6 | 0.25 | 0.48 | 0.25 | 96 | 1010.0 |
| 20260506003806 | 54 | 50 | 0.0 | 1.7 | 0.19 | 0.42 | 0.19 | 96 | 1009.9 |
| 20260506003305 | 54 | 90 | 0.9 | 5.2 | 0.13 | 0.36 | 0.13 | 96 | 1009.9 |
| 20260506001805 | 55 | 158 | 0.9 | 7.8 | 0.11 | 0.35 | 0.11 | 96 | 1009.9 |
| 20260506001305 | 55 | 98 | 2.6 | 7.0 | 0.10 | 0.35 | 0.10 | 96 | 1009.9 |
| 20260506000305 | 55 | 91 | 0.0 | 1.7 | 0.04 | 0.30 | 0.04 | 95 | 1010.1 |
| 20260505234305 | 55 | 51 | 0.0 | 0.9 | 0.00 | 0.28 | 0.00 | 95 | 1010.1 |
| 20260505233805 | 55 | 50 | 0.0 | 0.9 | 0.00 | 0.28 | 0.00 | 95 | 1010.2 |
| 20260505233306 | 55 | 287 | 0.0 | 4.3 | 0.00 | 0.28 | 0.00 | 95 | 1009.9 |
| 20260505231306 | 54 | 350 | 0.9 | 1.7 | 0.00 | 0.28 | 0.00 | 95 | 1010.8 |
| 20260505230806 | 54 | 102 | 0.0 | 0.9 | 0.00 | 0.30 | 0.00 | 95 | 1010.6 |
| 20260505230305 | 54 | 82 | 0.0 | 4.3 | 0.00 | 0.30 | 0.00 | 95 | 1010.8 |
| 20260505224805 | 55 | 73 | 1.7 | 4.3 | 0.00 | 0.32 | 0.00 | 95 | 1010.7 |
| 20260505224305 | 54 | 101 | 0.9 | 1.7 | 0.00 | 0.32 | 0.00 | 95 | 1011.0 |
| 20260505223305 | 54 | 124 | 0.0 | 5.2 | 0.00 | 0.33 | 0.00 | 95 | 1011.2 |
| 20260505221805 | 53 | 102 | 1.7 | 5.2 | 0.00 | 0.34 | 0.00 | 94 | 1011.0 |
| 20260505221305 | 53 | 170 | 0.9 | 0.9 | 0.00 | 0.35 | 0.00 | 94 | 1011.3 |
| 20260505220805 | 54 | 129 | 0.0 | 1.7 | 0.00 | 0.36 | 0.00 | 94 | 1011.4 |
| 20260505214305 | 55 | 50 | 0.0 | 0.9 | 0.00 | 0.36 | 0.36 | 93 | 1012.0 |
| 20260505213804 | 55 | 61 | 0.9 | 1.7 | 0.00 | 0.36 | 0.36 | 92 | 1011.8 |
| 20260505213305 | 55 | 299 | 0.9 | 2.6 | 0.00 | 0.36 | 0.36 | 92 | 1011.9 |
| 20260505211804 | 56 | 224 | 0.0 | 0.0 | 0.00 | 0.37 | 0.36 | 91 | 1011.9 |
| 20260505211305 | 56 | 114 | 0.9 | 1.7 | 0.00 | 0.37 | 0.36 | 90 | 1011.8 |
| 20260505210805 | 56 | 78 | 2.6 | 5.2 | 0.00 | 0.37 | 0.36 | 89 | 1011.5 |
| 20260505210305 | 56 | 92 | 1.7 | 4.3 | 0.00 | 0.37 | 0.36 | 88 | 1011.6 |
| 20260505203804 | 57 | 94 | 1.7 | 4.3 | 0.00 | 0.37 | 0.36 | 86 | 1012.3 |
| 20260505203305 | 57 | 94 | 0.9 | 4.3 | 0.00 | 0.37 | 0.36 | 86 | 1012.3 |
| 20260505201805 | 57 | 215 | 0.9 | 1.7 | 0.00 | 0.39 | 0.36 | 86 | 1012.2 |
| 20260505200806 | 57 | 214 | 0.9 | 1.7 | 0.00 | 0.39 | 0.36 | 87 | 1012.3 |
| 20260505200305 | 57 | 136 | 0.0 | 1.7 | 0.00 | 0.39 | 0.36 | 86 | 1012.3 |
| 20260505194805 | 58 | 91 | 0.0 | 0.9 | 0.00 | 0.39 | 0.36 | 84 | 1011.7 |
| 20260505194305 | 58 | 83 | 1.7 | 4.3 | 0.00 | 0.39 | 0.36 | 84 | 1011.8 |
| 20260505193306 | 58 | 65 | 1.7 | 6.1 | 0.00 | 0.39 | 0.36 | 83 | 1012.0 |
| 20260505191805 | 58 | 52 | 0.0 | 1.7 | 0.00 | 0.39 | 0.36 | 81 | 1011.7 |
| 20260505191305 | 58 | 5 | 0.0 | 2.6 | 0.00 | 0.39 | 0.36 | 80 | 1011.9 |
| 20260505190806 | 59 | 30 | 0.9 | 1.7 | 0.00 | 0.39 | 0.36 | 78 | 1011.9 |
| 20260505190306 | 59 | 101 | 0.9 | 2.6 | 0.00 | 0.39 | 0.36 | 77 | 1011.8 |